Time,TemperatureF,DewpointF,PressureIn,WindDirection,WindDirectionDegrees,WindSpeedMPH,WindSpeedGustMPH,Humidity,HourlyPrecipIn,Conditions,Clouds,dailyrainin,SolarRadiationWatts/m^2,SoftwareType,DateUTC
2013-03-07 00:00:00,36.5,31.5,30.09,SW,219,1.0,5.0,82,0.00,,,0.13,0,HR-IXP-WINDi_r2_v1.2,2013-03-07 05:00:00,
2013-03-07 00:05:00,36.6,31.6,30.09,SSW,211,0.0,5.0,82,0.00,,,0.13,0,HR-IXP-WINDi_r2_v1.2,2013-03-07 05:05:00,
2013-03-07 00:10:00,36.6,31.3,30.10,SSW,207,1.0,4.0,81,0.00,,,0.13,0,HR-IXP-WINDi_r2_v1.2,2013-03-07 05:10:00,
2013-03-07 00:15:00,36.7,31.1,30.10,SW,232,0.0,4.0,80,0.00,,,0.13,0,HR-IXP-WINDi_r2_v1.2,2013-03-07 05:15:00,
2013-03-07 00:21:00,36.7,31.1,30.09,WSW,246,3.0,5.0,80,0.00,,,0.13,0,HR-IXP-WINDi_r2_v1.2,2013-03-07 05:21:00,
2013-03-07 00:26:00,36.8,30.9,30.09,WSW,246,2.0,5.0,79,0.00,,,0.13,0,HR-IXP-WINDi_r2_v1.2,2013-03-07 05:26:00,
2013-03-07 00:31:00,36.9,31.0,30.10,SW,229,1.0,3.0,79,0.00,,,0.13,0,HR-IXP-WINDi_r2_v1.2,2013-03-07 05:31:00,
2013-03-07 00:36:00,36.9,31.0,30.10,SSW,209,0.0,4.0,79,0.00,,,0.13,0,HR-IXP-WINDi_r2_v1.2,2013-03-07 05:36:00,
2013-03-07 00:41:00,36.9,31.0,30.10,SSW,209,2.0,4.0,79,0.00,,,0.13,0,HR-IXP-WINDi_r2_v1.2,2013-03-07 05:41:00,
2013-03-07 00:46:00,37.0,30.8,30.09,SW,229,0.0,6.0,78,0.00,,,0.13,0,HR-IXP-WINDi_r2_v1.2,2013-03-07 05:46:00,
2013-03-07 00:51:00,37.0,30.8,30.09,SSW,202,0.0,6.0,78,0.00,,,0.13,0,HR-IXP-WINDi_r2_v1.2,2013-03-07 05:51:00,
2013-03-07 00:57:00,37.0,30.8,30.09,SSW,208,1.0,6.0,78,0.00,,,0.13,0,HR-IXP-WINDi_r2_v1.2,2013-03-07 05:57:00,
2013-03-07 01:02:00,37.0,30.8,30.09,South,176,3.0,5.0,78,0.00,,,0.13,0,HR-IXP-WINDi_r2_v1.2,2013-03-07 06:02:00,
2013-03-07 01:07:00,37.1,30.9,30.08,SSE,155,1.0,6.0,78,0.00,,,0.13,0,HR-IXP-WINDi_r2_v1.2,2013-03-07 06:07:00,
2013-03-07 01:12:00,37.1,30.9,30.08,West,271,5.0,6.0,78,0.00,,,0.13,0,HR-IXP-WINDi_r2_v1.2,2013-03-07 06:12:00,
2013-03-07 01:18:00,37.0,30.8,30.08,SW,235,1.0,6.0,78,0.00,,,0.13,0,HR-IXP-WINDi_r2_v1.2,2013-03-07 06:18:00,
2013-03-07 01:23:00,37.0,30.8,30.08,SW,223,0.0,6.0,78,0.00,,,0.13,0,HR-IXP-WINDi_r2_v1.2,2013-03-07 06:23:00,
2013-03-07 01:28:00,37.0,30.8,30.08,SW,224,0.0,4.0,78,0.00,,,0.13,0,HR-IXP-WINDi_r2_v1.2,2013-03-07 06:28:00,
2013-03-07 01:33:00,37.0,30.8,30.07,SSW,202,1.0,3.0,78,0.00,,,0.13,0,HR-IXP-WINDi_r2_v1.2,2013-03-07 06:33:00,
2013-03-07 01:38:00,37.0,30.8,30.07,West,272,0.0,3.0,78,0.00,,,0.13,0,HR-IXP-WINDi_r2_v1.2,2013-03-07 06:38:00,
2013-03-07 01:44:00,36.9,30.7,30.07,SW,227,0.0,5.0,78,0.00,,,0.13,0,HR-IXP-WINDi_r2_v1.2,2013-03-07 06:44:00,
2013-03-07 01:49:00,36.9,30.7,30.07,SSW,212,2.0,5.0,78,0.00,,,0.13,0,HR-IXP-WINDi_r2_v1.2,2013-03-07 06:49:00,
2013-03-07 01:54:00,36.9,30.7,30.07,SW,232,1.0,4.0,78,0.00,,,0.13,0,HR-IXP-WINDi_r2_v1.2,2013-03-07 06:54:00,
2013-03-07 01:59:00,36.9,30.7,30.07,SW,220,1.0,4.0,78,0.00,,,0.13,0,HR-IXP-WINDi_r2_v1.2,2013-03-07 06:59:00,
2013-03-07 02:04:00,36.9,30.7,30.06,SSW,203,1.0,4.0,78,0.00,,,0.13,0,HR-IXP-WINDi_r2_v1.2,2013-03-07 07:04:00,
2013-03-07 02:10:00,36.8,30.6,30.07,SSW,198,3.0,6.0,78,0.00,,,0.13,0,HR-IXP-WINDi_r2_v1.2,2013-03-07 07:10:00,
2013-03-07 02:15:00,36.8,30.2,30.06,SW,223,0.0,6.0,77,0.00,,,0.13,0,HR-IXP-WINDi_r2_v1.2,2013-03-07 07:15:00,
2013-03-07 02:20:00,36.8,30.2,30.06,SSW,209,0.0,5.0,77,0.00,,,0.13,0,HR-IXP-WINDi_r2_v1.2,2013-03-07 07:20:00,
2013-03-07 02:25:00,36.8,30.2,30.05,SW,221,0.0,5.0,77,0.00,,,0.13,0,HR-IXP-WINDi_r2_v1.2,2013-03-07 07:25:00,
2013-03-07 02:30:00,36.7,30.1,30.05,South,180,2.0,4.0,77,0.00,,,0.13,0,HR-IXP-WINDi_r2_v1.2,2013-03-07 07:30:00,
2013-03-07 02:36:00,36.7,30.5,30.05,SW,234,1.0,4.0,78,0.00,,,0.13,0,HR-IXP-WINDi_r2_v1.2,2013-03-07 07:36:00,
2013-03-07 02:41:00,36.7,30.5,30.05,SSW,208,1.0,4.0,78,0.00,,,0.13,0,HR-IXP-WINDi_r2_v1.2,2013-03-07 07:41:00,
2013-03-07 02:46:00,36.7,30.5,30.05,SW,218,0.0,4.0,78,0.00,,,0.13,0,HR-IXP-WINDi_r2_v1.2,2013-03-07 07:46:00,
2013-03-07 02:52:00,36.7,30.5,30.05,SSW,205,1.0,4.0,78,0.00,,,0.13,0,HR-IXP-WINDi_r2_v1.2,2013-03-07 07:52:00,
2013-03-07 02:57:00,36.7,30.5,30.05,SW,227,0.0,4.0,78,0.00,,,0.00,0,HR-IXP-WINDi_r2_v1.2,2013-03-07 07:57:00,
2013-03-07 03:02:00,36.6,30.4,30.05,SSW,200,1.0,4.0,78,0.00,,,0.00,0,HR-IXP-WINDi_r2_v1.2,2013-03-07 08:02:00,
2013-03-07 03:07:00,36.6,30.4,30.05,WSW,246,0.0,4.0,78,0.00,,,0.00,0,HR-IXP-WINDi_r2_v1.2,2013-03-07 08:07:00,
2013-03-07 03:12:00,36.5,30.6,30.05,SSW,194,2.0,4.0,79,0.00,,,0.00,0,HR-IXP-WINDi_r2_v1.2,2013-03-07 08:12:00,
2013-03-07 03:17:00,36.3,30.7,30.06,SSW,197,0.0,3.0,80,0.00,,,0.00,0,HR-IXP-WINDi_r2_v1.2,2013-03-07 08:17:00,
2013-03-07 03:22:00,36.2,30.9,30.06,SSW,197,0.0,2.0,81,0.00,,,0.00,0,HR-IXP-WINDi_r2_v1.2,2013-03-07 08:22:00,
2013-03-07 03:27:00,36.0,30.7,30.06,SSW,212,0.0,2.0,81,0.00,,,0.00,0,HR-IXP-WINDi_r2_v1.2,2013-03-07 08:27:00,
2013-03-07 03:33:00,35.8,30.8,30.06,SW,227,0.0,2.0,82,0.00,,,0.00,0,HR-IXP-WINDi_r2_v1.2,2013-03-07 08:33:00,
2013-03-07 03:38:00,35.6,30.9,30.06,WSW,237,1.0,3.0,83,0.00,,,0.00,0,HR-IXP-WINDi_r2_v1.2,2013-03-07 08:38:00,
2013-03-07 03:43:00,35.5,30.8,30.06,SW,234,0.0,3.0,83,0.00,,,0.00,0,HR-IXP-WINDi_r2_v1.2,2013-03-07 08:43:00,
2013-03-07 03:48:00,35.4,31.0,30.06,SW,234,0.0,3.0,84,0.00,,,0.00,0,HR-IXP-WINDi_r2_v1.2,2013-03-07 08:48:00,
2013-03-07 03:53:00,35.3,30.9,30.06,SW,234,1.0,3.0,84,0.00,,,0.00,0,HR-IXP-WINDi_r2_v1.2,2013-03-07 08:53:00,
2013-03-07 03:58:00,35.1,31.0,30.06,SW,223,0.0,3.0,85,0.00,,,0.00,0,HR-IXP-WINDi_r2_v1.2,2013-03-07 08:58:00,
2013-03-07 04:04:00,34.9,30.8,30.05,SSW,211,1.0,3.0,85,0.00,,,0.00,0,HR-IXP-WINDi_r2_v1.2,2013-03-07 09:04:00,
2013-03-07 04:09:00,34.7,30.9,30.06,SW,225,0.0,3.0,86,0.00,,,0.00,0,HR-IXP-WINDi_r2_v1.2,2013-03-07 09:09:00,
2013-03-07 04:14:00,34.7,30.6,30.05,SW,215,1.0,3.0,85,0.00,,,0.00,0,HR-IXP-WINDi_r2_v1.2,2013-03-07 09:14:00,
2013-03-07 04:19:00,34.5,30.7,30.05,SW,221,0.0,2.0,86,0.00,,,0.00,0,HR-IXP-WINDi_r2_v1.2,2013-03-07 09:19:00,
2013-03-07 04:24:00,34.3,30.5,30.05,SW,223,0.0,2.0,86,0.00,,,0.00,0,HR-IXP-WINDi_r2_v1.2,2013-03-07 09:24:00,
2013-03-07 04:30:00,34.2,30.7,30.05,SW,216,0.0,2.0,87,0.00,,,0.00,0,HR-IXP-WINDi_r2_v1.2,2013-03-07 09:30:00,
2013-03-07 04:36:00,34.0,30.5,30.05,SW,224,0.0,2.0,87,0.00,,,0.00,0,HR-IXP-WINDi_r2_v1.2,2013-03-07 09:36:00,
2013-03-07 04:41:00,33.9,30.4,30.04,SW,217,0.0,3.0,87,0.00,,,0.00,0,HR-IXP-WINDi_r2_v1.2,2013-03-07 09:41:00,
2013-03-07 04:47:00,33.7,30.2,30.05,SW,230,0.0,3.0,87,0.00,,,0.00,0,HR-IXP-WINDi_r2_v1.2,2013-03-07 09:47:00,
2013-03-07 04:52:00,33.5,30.3,30.05,SW,230,0.0,2.0,88,0.00,,,0.00,0,HR-IXP-WINDi_r2_v1.2,2013-03-07 09:52:00,
2013-03-07 04:58:00,33.5,30.3,30.05,SSW,195,1.0,3.0,88,0.00,,,0.00,0,HR-IXP-WINDi_r2_v1.2,2013-03-07 09:58:00,
2013-03-07 05:03:00,33.3,30.1,30.05,SSE,159,0.0,3.0,88,0.00,,,0.00,0,HR-IXP-WINDi_r2_v1.2,2013-03-07 10:03:00,
2013-03-07 05:09:00,33.3,30.1,30.05,SW,223,0.0,3.0,88,0.00,,,0.00,0,HR-IXP-WINDi_r2_v1.2,2013-03-07 10:09:00,
2013-03-07 05:14:00,33.2,30.0,30.06,SW,223,0.0,1.0,88,0.00,,,0.00,0,HR-IXP-WINDi_r2_v1.2,2013-03-07 10:14:00,
2013-03-07 05:19:00,33.2,30.0,30.06,WSW,242,0.0,3.0,88,0.00,,,0.00,0,HR-IXP-WINDi_r2_v1.2,2013-03-07 10:19:00,
2013-03-07 05:24:00,33.1,29.9,30.06,SSW,210,0.0,3.0,88,0.00,,,0.00,0,HR-IXP-WINDi_r2_v1.2,2013-03-07 10:24:00,
2013-03-07 05:29:00,33.0,29.8,30.06,SW,223,0.0,2.0,88,0.00,,,0.00,0,HR-IXP-WINDi_r2_v1.2,2013-03-07 10:29:00,
2013-03-07 05:35:00,33.0,29.8,30.06,SW,216,0.0,4.0,88,0.00,,,0.00,0,HR-IXP-WINDi_r2_v1.2,2013-03-07 10:35:00,
2013-03-07 05:40:00,33.0,30.1,30.06,SW,225,0.0,4.0,89,0.00,,,0.00,0,HR-IXP-WINDi_r2_v1.2,2013-03-07 10:40:00,
2013-03-07 05:45:00,32.9,30.0,30.06,SSW,212,0.0,3.0,89,0.00,,,0.00,0,HR-IXP-WINDi_r2_v1.2,2013-03-07 10:45:00,
2013-03-07 05:50:00,32.9,30.0,30.06,SE,142,0.0,3.0,89,0.00,,,0.00,0,HR-IXP-WINDi_r2_v1.2,2013-03-07 10:50:00,
2013-03-07 05:56:00,32.9,30.0,30.06,SW,232,1.0,3.0,89,0.00,,,0.00,0,HR-IXP-WINDi_r2_v1.2,2013-03-07 10:56:00,
2013-03-07 06:01:00,32.8,29.9,30.06,SW,221,0.0,3.0,89,0.00,,,0.00,0,HR-IXP-WINDi_r2_v1.2,2013-03-07 11:01:00,
2013-03-07 06:06:00,32.8,29.9,30.07,SW,217,1.0,3.0,89,0.00,,,0.00,0,HR-IXP-WINDi_r2_v1.2,2013-03-07 11:06:00,
2013-03-07 06:11:00,32.8,29.9,30.07,SW,225,0.0,3.0,89,0.00,,,0.00,0,HR-IXP-WINDi_r2_v1.2,2013-03-07 11:11:00,
2013-03-07 06:16:00,32.8,29.9,30.07,SW,227,0.0,3.0,89,0.00,,,0.00,0,HR-IXP-WINDi_r2_v1.2,2013-03-07 11:16:00,
2013-03-07 06:22:00,32.8,29.9,30.07,SSW,193,0.0,3.0,89,0.00,,,0.00,0,HR-IXP-WINDi_r2_v1.2,2013-03-07 11:22:00,
2013-03-07 06:27:00,32.8,29.9,30.07,SW,233,0.0,3.0,89,0.00,,,0.00,0,HR-IXP-WINDi_r2_v1.2,2013-03-07 11:27:00,
2013-03-07 06:32:00,32.7,29.8,30.07,SW,228,0.0,2.0,89,0.00,,,0.00,0,HR-IXP-WINDi_r2_v1.2,2013-03-07 11:32:00,
2013-03-07 06:37:00,32.7,29.8,30.07,WSW,249,1.0,2.0,89,0.00,,,0.00,0,HR-IXP-WINDi_r2_v1.2,2013-03-07 11:37:00,
2013-03-07 06:42:00,32.7,29.8,30.07,SSW,213,1.0,2.0,89,0.00,,,0.00,0,HR-IXP-WINDi_r2_v1.2,2013-03-07 11:42:00,
2013-03-07 06:47:00,32.7,29.8,30.07,SW,230,0.0,3.0,89,0.00,,,0.00,0,HR-IXP-WINDi_r2_v1.2,2013-03-07 11:47:00,
2013-03-07 06:53:00,32.6,29.7,30.07,SW,216,0.0,3.0,89,0.00,,,0.00,0,HR-IXP-WINDi_r2_v1.2,2013-03-07 11:53:00,
2013-03-07 06:58:00,32.6,29.7,30.07,SW,227,0.0,3.0,89,0.00,,,0.00,0,HR-IXP-WINDi_r2_v1.2,2013-03-07 11:58:00,
2013-03-07 07:04:00,32.6,29.7,30.07,WSW,242,0.0,3.0,89,0.00,,,0.00,0,HR-IXP-WINDi_r2_v1.2,2013-03-07 12:04:00,
2013-03-07 07:09:00,32.5,29.6,30.07,SW,219,0.0,3.0,89,0.00,,,0.00,0,HR-IXP-WINDi_r2_v1.2,2013-03-07 12:09:00,
2013-03-07 07:14:00,32.5,29.6,30.08,South,182,0.0,2.0,89,0.00,,,0.00,0,HR-IXP-WINDi_r2_v1.2,2013-03-07 12:14:00,
2013-03-07 07:20:00,32.5,29.6,30.08,SW,232,0.0,2.0,89,0.00,,,0.00,0,HR-IXP-WINDi_r2_v1.2,2013-03-07 12:20:00,
2013-03-07 07:25:00,32.5,29.6,30.08,SSW,206,0.0,2.0,89,0.00,,,0.00,0,HR-IXP-WINDi_r2_v1.2,2013-03-07 12:25:00,
2013-03-07 07:30:00,32.5,29.9,30.07,WSW,237,0.0,2.0,90,0.00,,,0.00,5,HR-IXP-WINDi_r2_v1.2,2013-03-07 12:30:00,
2013-03-07 07:35:00,32.5,29.9,30.07,SW,223,0.0,3.0,90,0.00,,,0.00,5,HR-IXP-WINDi_r2_v1.2,2013-03-07 12:35:00,
2013-03-07 07:40:00,32.5,29.9,30.07,South,181,0.0,3.0,90,0.00,,,0.00,7,HR-IXP-WINDi_r2_v1.2,2013-03-07 12:40:00,
2013-03-07 07:45:00,32.5,29.9,30.07,SW,225,0.0,3.0,90,0.00,,,0.00,9,HR-IXP-WINDi_r2_v1.2,2013-03-07 12:45:00,
2013-03-07 07:50:00,32.6,30.0,30.07,SSW,209,0.0,3.0,90,0.00,,,0.00,9,HR-IXP-WINDi_r2_v1.2,2013-03-07 12:50:00,
2013-03-07 07:56:00,32.6,30.0,30.07,South,184,1.0,3.0,90,0.00,,,0.00,11,HR-IXP-WINDi_r2_v1.2,2013-03-07 12:56:00,
2013-03-07 08:01:00,32.8,30.2,30.07,SSE,151,0.0,3.0,90,0.00,,,0.00,12,HR-IXP-WINDi_r2_v1.2,2013-03-07 13:01:00,
2013-03-07 08:06:00,32.8,30.2,30.07,SSW,211,0.0,3.0,90,0.00,,,0.00,12,HR-IXP-WINDi_r2_v1.2,2013-03-07 13:06:00,
2013-03-07 08:11:00,32.9,30.3,30.07,SW,234,0.0,2.0,90,0.00,,,0.00,14,HR-IXP-WINDi_r2_v1.2,2013-03-07 13:11:00,
2013-03-07 08:16:00,33.0,30.4,30.07,South,182,0.0,2.0,90,0.00,,,0.00,12,HR-IXP-WINDi_r2_v1.2,2013-03-07 13:16:00,
2013-03-07 08:21:00,33.0,30.4,30.07,SSE,150,0.0,2.0,90,0.00,,,0.00,12,HR-IXP-WINDi_r2_v1.2,2013-03-07 13:21:00,
2013-03-07 08:27:00,33.1,30.5,30.07,South,181,0.0,1.0,90,0.00,,,0.00,12,HR-IXP-WINDi_r2_v1.2,2013-03-07 13:27:00,
2013-03-07 08:32:00,33.2,30.6,30.07,SW,225,0.0,3.0,90,0.00,,,0.00,12,HR-IXP-WINDi_r2_v1.2,2013-03-07 13:32:00,
2013-03-07 08:37:00,33.3,30.7,30.07,SW,227,0.0,3.0,90,0.00,,,0.00,12,HR-IXP-WINDi_r2_v1.2,2013-03-07 13:37:00,
2013-03-07 08:42:00,33.4,30.8,30.07,South,179,1.0,2.0,90,0.00,,,0.00,12,HR-IXP-WINDi_r2_v1.2,2013-03-07 13:42:00,
2013-03-07 08:47:00,33.4,30.8,30.07,SSW,207,1.0,2.0,90,0.00,,,0.00,12,HR-IXP-WINDi_r2_v1.2,2013-03-07 13:47:00,
2013-03-07 08:53:00,33.4,30.8,30.06,South,173,0.0,2.0,90,0.00,,,0.00,12,HR-IXP-WINDi_r2_v1.2,2013-03-07 13:53:00,
2013-03-07 08:58:00,33.6,31.0,30.07,SSW,205,0.0,2.0,90,0.00,,,0.00,14,HR-IXP-WINDi_r2_v1.2,2013-03-07 13:58:00,
2013-03-07 09:03:00,33.7,31.1,30.06,SSW,206,1.0,2.0,90,0.00,,,0.00,14,HR-IXP-WINDi_r2_v1.2,2013-03-07 14:03:00,
2013-03-07 09:08:00,33.8,32.7,30.06,SSW,207,1.0,3.0,96,0.00,,,0.00,16,HR-IXP-WINDi_r2_v1.2,2013-03-07 14:08:00,
2013-03-07 09:13:00,33.9,31.2,30.06,SSW,207,0.0,3.0,90,0.00,,,0.00,18,HR-IXP-WINDi_r2_v1.2,2013-03-07 14:13:00,
2013-03-07 09:18:00,34.0,31.3,30.06,SSW,205,0.0,2.0,90,0.00,,,0.00,18,HR-IXP-WINDi_r2_v1.2,2013-03-07 14:18:00,
2013-03-07 09:24:00,34.2,31.5,30.06,SW,223,0.0,2.0,90,0.00,,,0.00,19,HR-IXP-WINDi_r2_v1.2,2013-03-07 14:24:00,
2013-03-07 09:29:00,34.3,31.6,30.06,SW,218,0.0,2.0,90,0.00,,,0.00,25,HR-IXP-WINDi_r2_v1.2,2013-03-07 14:29:00,
2013-03-07 09:34:00,34.5,31.8,30.06,SW,215,0.0,1.0,90,0.00,,,0.00,23,HR-IXP-WINDi_r2_v1.2,2013-03-07 14:34:00,
2013-03-07 09:39:00,34.6,31.9,30.06,WSW,242,0.0,2.0,90,0.00,,,0.00,25,HR-IXP-WINDi_r2_v1.2,2013-03-07 14:39:00,
2013-03-07 09:44:00,34.8,32.1,30.06,SW,217,2.0,3.0,90,0.00,,,0.00,25,HR-IXP-WINDi_r2_v1.2,2013-03-07 14:44:00,
2013-03-07 09:50:00,34.9,32.0,30.06,SSW,205,0.0,4.0,89,0.00,,,0.00,26,HR-IXP-WINDi_r2_v1.2,2013-03-07 14:50:00,
2013-03-07 09:55:00,35.0,32.1,30.06,South,181,0.0,4.0,89,0.00,,,0.00,25,HR-IXP-WINDi_r2_v1.2,2013-03-07 14:55:00,
2013-03-07 10:00:00,35.1,32.4,30.06,SW,227,1.0,3.0,90,0.00,,,0.00,25,HR-IXP-WINDi_r2_v1.2,2013-03-07 15:00:00,
2013-03-07 10:05:00,35.2,32.3,30.05,SSW,212,0.0,3.0,89,0.00,,,0.01,21,HR-IXP-WINDi_r2_v1.2,2013-03-07 15:05:00,
2013-03-07 10:10:00,35.3,32.4,30.06,SSW,206,0.0,3.0,89,0.00,,,0.01,28,HR-IXP-WINDi_r2_v1.2,2013-03-07 15:10:00,
2013-03-07 10:15:00,35.4,32.4,30.06,SSW,209,0.0,2.0,89,0.00,,,0.01,26,HR-IXP-WINDi_r2_v1.2,2013-03-07 15:15:00,
2013-03-07 10:20:00,35.6,32.6,30.06,WSW,242,1.0,3.0,89,0.00,,,0.01,28,HR-IXP-WINDi_r2_v1.2,2013-03-07 15:20:00,
2013-03-07 10:26:00,35.6,32.6,30.06,SW,228,0.0,3.0,89,0.00,,,0.01,26,HR-IXP-WINDi_r2_v1.2,2013-03-07 15:26:00,
2013-03-07 10:31:00,35.6,32.6,30.06,SW,214,1.0,3.0,89,0.00,,,0.01,25,HR-IXP-WINDi_r2_v1.2,2013-03-07 15:31:00,
2013-03-07 10:36:00,35.7,32.5,30.06,WSW,237,0.0,3.0,88,0.00,,,0.01,21,HR-IXP-WINDi_r2_v1.2,2013-03-07 15:36:00,
2013-03-07 10:41:00,35.6,32.4,30.06,SSW,211,0.0,3.0,88,0.00,,,0.01,23,HR-IXP-WINDi_r2_v1.2,2013-03-07 15:41:00,
2013-03-07 10:46:00,35.6,32.4,30.06,SW,220,0.0,3.0,88,0.00,,,0.01,25,HR-IXP-WINDi_r2_v1.2,2013-03-07 15:46:00,
2013-03-07 10:51:00,35.6,32.4,30.06,SSW,197,0.0,3.0,88,0.00,,,0.02,28,HR-IXP-WINDi_r2_v1.2,2013-03-07 15:51:00,
2013-03-07 10:56:00,35.6,32.4,30.06,SW,233,1.0,3.0,88,0.00,,,0.02,37,HR-IXP-WINDi_r2_v1.2,2013-03-07 15:56:00,
2013-03-07 11:02:00,35.5,32.3,30.06,SW,214,1.0,4.0,88,0.05,,,0.03,40,HR-IXP-WINDi_r2_v1.2,2013-03-07 16:02:00,
2013-03-07 11:07:00,35.1,31.9,30.06,SW,233,3.0,4.0,88,0.05,,,0.03,46,HR-IXP-WINDi_r2_v1.2,2013-03-07 16:07:00,
2013-03-07 11:12:00,35.1,32.2,30.06,West,268,2.0,4.0,89,0.05,,,0.03,47,HR-IXP-WINDi_r2_v1.2,2013-03-07 16:12:00,
2013-03-07 11:17:00,35.1,32.2,30.06,South,186,0.0,4.0,89,0.00,,,0.03,44,HR-IXP-WINDi_r2_v1.2,2013-03-07 16:17:00,
2013-03-07 11:22:00,35.2,32.3,30.06,SSW,198,0.0,4.0,89,0.00,,,0.03,44,HR-IXP-WINDi_r2_v1.2,2013-03-07 16:22:00,
2013-03-07 11:27:00,35.3,32.1,30.07,South,186,2.0,3.0,88,0.00,,,0.03,40,HR-IXP-WINDi_r2_v1.2,2013-03-07 16:27:00,
2013-03-07 11:32:00,35.3,32.1,30.07,SW,229,2.0,3.0,88,0.00,,,0.04,49,HR-IXP-WINDi_r2_v1.2,2013-03-07 16:32:00,
2013-03-07 11:38:00,35.2,32.3,30.07,SSW,205,1.0,4.0,89,0.00,,,0.04,53,HR-IXP-WINDi_r2_v1.2,2013-03-07 16:38:00,
2013-03-07 11:43:00,35.2,32.3,30.07,SSW,204,2.0,4.0,89,0.05,,,0.05,77,HR-IXP-WINDi_r2_v1.2,2013-03-07 16:43:00,
2013-03-07 11:48:00,35.4,32.4,30.07,South,188,2.0,3.0,89,0.05,,,0.05,72,HR-IXP-WINDi_r2_v1.2,2013-03-07 16:48:00,
2013-03-07 11:53:00,35.3,32.1,30.07,South,184,2.0,3.0,88,0.05,,,0.05,86,HR-IXP-WINDi_r2_v1.2,2013-03-07 16:53:00,
2013-03-07 11:58:00,35.3,32.1,30.06,SSW,212,0.0,3.0,88,0.00,,,0.05,93,HR-IXP-WINDi_r2_v1.2,2013-03-07 16:58:00,
2013-03-07 12:03:00,35.3,32.1,30.06,SSW,205,0.0,3.0,88,0.00,,,0.05,102,HR-IXP-WINDi_r2_v1.2,2013-03-07 17:03:00,
2013-03-07 12:08:00,35.4,32.2,30.06,West,266,1.0,3.0,88,0.00,,,0.05,100,HR-IXP-WINDi_r2_v1.2,2013-03-07 17:08:00,
2013-03-07 12:14:00,35.3,32.1,30.06,SSE,161,0.0,5.0,88,0.00,,,0.06,100,HR-IXP-WINDi_r2_v1.2,2013-03-07 17:14:00,
2013-03-07 12:19:00,35.4,32.4,30.06,SSE,163,0.0,5.0,89,0.00,,,0.06,116,HR-IXP-WINDi_r2_v1.2,2013-03-07 17:19:00,
2013-03-07 12:24:00,35.4,32.2,30.06,SSW,211,0.0,4.0,88,0.00,,,0.06,98,HR-IXP-WINDi_r2_v1.2,2013-03-07 17:24:00,
2013-03-07 12:29:00,35.4,32.2,30.06,SSW,200,0.0,4.0,88,0.05,,,0.07,98,HR-IXP-WINDi_r2_v1.2,2013-03-07 17:29:00,
2013-03-07 12:34:00,35.3,32.1,30.06,SSW,199,0.0,2.0,88,0.05,,,0.07,95,HR-IXP-WINDi_r2_v1.2,2013-03-07 17:34:00,
2013-03-07 12:39:00,35.3,32.1,30.06,SE,141,0.0,4.0,88,0.04,,,0.07,79,HR-IXP-WINDi_r2_v1.2,2013-03-07 17:39:00,
2013-03-07 12:45:00,35.3,32.1,30.06,West,271,0.0,4.0,88,0.00,,,0.07,105,HR-IXP-WINDi_r2_v1.2,2013-03-07 17:45:00,
2013-03-07 12:50:00,35.5,32.3,30.06,SE,125,0.0,4.0,88,0.00,,,0.07,107,HR-IXP-WINDi_r2_v1.2,2013-03-07 17:50:00,
2013-03-07 12:55:00,35.6,32.4,30.06,SW,232,1.0,2.0,88,0.00,,,0.07,100,HR-IXP-WINDi_r2_v1.2,2013-03-07 17:55:00,
2013-03-07 13:00:00,35.6,32.4,30.06,SW,236,0.0,3.0,88,0.00,,,0.08,121,HR-IXP-WINDi_r2_v1.2,2013-03-07 18:00:00,
2013-03-07 13:06:00,35.6,32.4,30.06,SSW,212,1.0,3.0,88,0.00,,,0.08,118,HR-IXP-WINDi_r2_v1.2,2013-03-07 18:06:00,
2013-03-07 13:11:00,35.5,32.3,30.06,SSW,211,0.0,3.0,88,0.05,,,0.09,118,HR-IXP-WINDi_r2_v1.2,2013-03-07 18:11:00,
2013-03-07 13:16:00,35.6,32.6,30.06,SW,216,0.0,3.0,89,0.05,,,0.09,114,HR-IXP-WINDi_r2_v1.2,2013-03-07 18:16:00,
2013-03-07 13:21:00,35.6,32.4,30.06,SW,221,0.0,2.0,88,0.05,,,0.09,109,HR-IXP-WINDi_r2_v1.2,2013-03-07 18:21:00,
2013-03-07 13:27:00,35.5,32.3,30.06,SW,232,0.0,2.0,88,0.00,,,0.09,113,HR-IXP-WINDi_r2_v1.2,2013-03-07 18:27:00,
2013-03-07 13:32:00,35.6,32.6,30.06,SW,216,2.0,3.0,89,0.00,,,0.09,102,HR-IXP-WINDi_r2_v1.2,2013-03-07 18:32:00,
2013-03-07 13:37:00,35.3,32.1,30.06,SSW,209,0.0,3.0,88,0.00,,,0.09,128,HR-IXP-WINDi_r2_v1.2,2013-03-07 18:37:00,
2013-03-07 13:42:00,35.5,32.5,30.06,WSW,242,0.0,3.0,89,0.00,,,0.10,120,HR-IXP-WINDi_r2_v1.2,2013-03-07 18:42:00,
2013-03-07 13:48:00,35.5,32.3,30.06,SSW,211,0.0,3.0,88,0.00,,,0.10,104,HR-IXP-WINDi_r2_v1.2,2013-03-07 18:48:00,
2013-03-07 13:53:00,35.5,32.5,30.06,WSW,240,0.0,3.0,89,0.00,,,0.10,97,HR-IXP-WINDi_r2_v1.2,2013-03-07 18:53:00,
2013-03-07 13:58:00,35.6,32.4,30.06,SSW,198,0.0,3.0,88,0.04,,,0.11,76,HR-IXP-WINDi_r2_v1.2,2013-03-07 18:58:00,
2013-03-07 14:03:00,35.4,32.2,30.06,South,171,0.0,3.0,88,0.04,,,0.11,77,HR-IXP-WINDi_r2_v1.2,2013-03-07 19:03:00,
2013-03-07 14:08:00,35.4,32.4,30.06,SSW,212,0.0,3.0,89,0.04,,,0.11,65,HR-IXP-WINDi_r2_v1.2,2013-03-07 19:08:00,
2013-03-07 14:14:00,35.3,32.1,30.06,SSE,163,0.0,3.0,88,0.00,,,0.11,72,HR-IXP-WINDi_r2_v1.2,2013-03-07 19:14:00,
2013-03-07 14:19:00,35.3,32.1,30.06,West,275,0.0,3.0,88,0.00,,,0.11,67,HR-IXP-WINDi_r2_v1.2,2013-03-07 19:19:00,
2013-03-07 14:24:00,35.3,32.4,30.06,WSW,247,0.0,3.0,89,0.00,,,0.11,63,HR-IXP-WINDi_r2_v1.2,2013-03-07 19:24:00,
2013-03-07 14:29:00,35.4,32.4,30.06,WSW,242,0.0,1.0,89,0.00,,,0.11,63,HR-IXP-WINDi_r2_v1.2,2013-03-07 19:29:00,
2013-03-07 14:34:00,35.3,32.4,30.06,SSW,200,1.0,5.0,89,0.00,,,0.11,63,HR-IXP-WINDi_r2_v1.2,2013-03-07 19:34:00,
2013-03-07 14:40:00,35.2,32.3,30.06,SW,233,1.0,5.0,89,0.00,,,0.11,62,HR-IXP-WINDi_r2_v1.2,2013-03-07 19:40:00,
2013-03-07 14:45:00,35.2,32.3,30.06,SW,219,0.0,5.0,89,0.00,,,0.12,51,HR-IXP-WINDi_r2_v1.2,2013-03-07 19:45:00,
2013-03-07 14:50:00,35.2,32.3,30.06,SW,229,1.0,5.0,89,0.00,,,0.12,60,HR-IXP-WINDi_r2_v1.2,2013-03-07 19:50:00,
2013-03-07 14:55:00,35.2,32.3,30.06,SW,232,1.0,5.0,89,0.00,,,0.12,65,HR-IXP-WINDi_r2_v1.2,2013-03-07 19:55:00,
2013-03-07 15:01:00,35.1,32.2,30.06,SSW,208,0.0,4.0,89,0.00,,,0.12,62,HR-IXP-WINDi_r2_v1.2,2013-03-07 20:01:00,
2013-03-07 15:06:00,35.1,32.2,30.06,SW,224,1.0,4.0,89,0.00,,,0.13,49,HR-IXP-WINDi_r2_v1.2,2013-03-07 20:06:00,
2013-03-07 15:11:00,35.0,31.8,30.06,WSW,243,0.0,3.0,88,0.00,,,0.13,42,HR-IXP-WINDi_r2_v1.2,2013-03-07 20:11:00,
2013-03-07 15:16:00,35.0,31.8,30.06,WSW,242,0.0,2.0,88,0.00,,,0.13,37,HR-IXP-WINDi_r2_v1.2,2013-03-07 20:16:00,
2013-03-07 15:21:00,35.1,32.2,30.06,SW,215,0.0,2.0,89,0.00,,,0.13,33,HR-IXP-WINDi_r2_v1.2,2013-03-07 20:21:00,
2013-03-07 15:27:00,35.1,32.2,30.06,SW,215,0.0,2.0,89,0.00,,,0.13,25,HR-IXP-WINDi_r2_v1.2,2013-03-07 20:27:00,
2013-03-07 15:32:00,35.1,32.2,30.06,SW,214,1.0,1.0,89,0.00,,,0.13,26,HR-IXP-WINDi_r2_v1.2,2013-03-07 20:32:00,
2013-03-07 15:37:00,35.1,32.2,30.06,SSE,167,0.0,1.0,89,0.00,,,0.13,26,HR-IXP-WINDi_r2_v1.2,2013-03-07 20:37:00,
2013-03-07 15:42:00,34.9,32.0,30.06,SSW,207,2.0,3.0,89,0.00,,,0.13,26,HR-IXP-WINDi_r2_v1.2,2013-03-07 20:42:00,
2013-03-07 15:47:00,34.8,31.9,30.06,SSW,208,0.0,3.0,89,0.00,,,0.13,14,HR-IXP-WINDi_r2_v1.2,2013-03-07 20:47:00,
2013-03-07 15:52:00,34.8,31.9,30.06,SSW,207,0.0,3.0,89,0.00,,,0.13,16,HR-IXP-WINDi_r2_v1.2,2013-03-07 20:52:00,
2013-03-07 15:58:00,34.7,31.8,30.06,SW,222,0.0,2.0,89,0.00,,,0.13,18,HR-IXP-WINDi_r2_v1.2,2013-03-07 20:58:00,
2013-03-07 16:03:00,34.6,31.7,30.06,WSW,239,0.0,2.0,89,0.00,,,0.13,19,HR-IXP-WINDi_r2_v1.2,2013-03-07 21:03:00,
2013-03-07 16:08:00,34.5,31.6,30.06,East,84,0.0,5.0,89,0.00,,,0.13,16,HR-IXP-WINDi_r2_v1.2,2013-03-07 21:08:00,
2013-03-07 16:14:00,34.4,31.5,30.06,South,182,0.0,5.0,89,0.00,,,0.13,16,HR-IXP-WINDi_r2_v1.2,2013-03-07 21:14:00,
2013-03-07 16:19:00,34.3,31.4,30.06,SSE,153,0.0,2.0,89,0.00,,,0.13,16,HR-IXP-WINDi_r2_v1.2,2013-03-07 21:19:00,
2013-03-07 16:24:00,34.2,31.3,30.06,SSW,196,0.0,2.0,89,0.00,,,0.13,16,HR-IXP-WINDi_r2_v1.2,2013-03-07 21:24:00,
2013-03-07 16:29:00,34.1,31.2,30.07,South,177,0.0,2.0,89,0.00,,,0.13,16,HR-IXP-WINDi_r2_v1.2,2013-03-07 21:29:00,
2013-03-07 16:34:00,34.1,31.2,30.07,WSW,237,0.0,3.0,89,0.00,,,0.13,16,HR-IXP-WINDi_r2_v1.2,2013-03-07 21:34:00,
2013-03-07 16:39:00,34.1,31.2,30.07,SW,225,0.0,3.0,89,0.00,,,0.13,18,HR-IXP-WINDi_r2_v1.2,2013-03-07 21:39:00,
2013-03-07 16:45:00,34.1,31.2,30.07,WSW,244,0.0,2.0,89,0.00,,,0.13,16,HR-IXP-WINDi_r2_v1.2,2013-03-07 21:45:00,
2013-03-07 16:50:00,34.1,31.2,30.07,WSW,240,0.0,2.0,89,0.00,,,0.13,12,HR-IXP-WINDi_r2_v1.2,2013-03-07 21:50:00,
2013-03-07 16:55:00,34.1,31.2,30.07,WSW,240,0.0,2.0,89,0.00,,,0.13,14,HR-IXP-WINDi_r2_v1.2,2013-03-07 21:55:00,
2013-03-07 17:01:00,34.1,31.2,30.07,SSW,209,0.0,1.0,89,0.00,,,0.13,11,HR-IXP-WINDi_r2_v1.2,2013-03-07 22:01:00,
2013-03-07 17:06:00,34.1,31.2,30.07,SSE,161,0.0,2.0,89,0.00,,,0.13,11,HR-IXP-WINDi_r2_v1.2,2013-03-07 22:06:00,
2013-03-07 17:11:00,34.0,31.1,30.07,WNW,287,0.0,2.0,89,0.00,,,0.14,7,HR-IXP-WINDi_r2_v1.2,2013-03-07 22:11:00,
2013-03-07 17:16:00,34.0,31.1,30.08,SSW,197,0.0,2.0,89,0.00,,,0.14,0,HR-IXP-WINDi_r2_v1.2,2013-03-07 22:16:00,
2013-03-07 17:22:00,33.9,31.0,30.08,SW,223,0.0,2.0,89,0.00,,,0.14,0,HR-IXP-WINDi_r2_v1.2,2013-03-07 22:22:00,
2013-03-07 17:27:00,33.9,31.0,30.08,SSW,211,0.0,1.0,89,0.00,,,0.14,0,HR-IXP-WINDi_r2_v1.2,2013-03-07 22:27:00,
2013-03-07 17:32:00,33.8,30.9,30.08,SSW,213,0.0,2.0,89,0.00,,,0.14,0,HR-IXP-WINDi_r2_v1.2,2013-03-07 22:32:00,
2013-03-07 17:37:00,33.8,30.9,30.07,WSW,240,2.0,2.0,89,0.00,,,0.14,0,HR-IXP-WINDi_r2_v1.2,2013-03-07 22:37:00,
2013-03-07 17:42:00,33.7,30.8,30.07,SW,215,0.0,2.0,89,0.00,,,0.14,0,HR-IXP-WINDi_r2_v1.2,2013-03-07 22:42:00,
2013-03-07 17:47:00,33.6,30.7,30.07,South,175,1.0,2.0,89,0.00,,,0.14,0,HR-IXP-WINDi_r2_v1.2,2013-03-07 22:47:00,
2013-03-07 17:52:00,33.5,30.6,30.07,SW,223,0.0,2.0,89,0.00,,,0.14,0,HR-IXP-WINDi_r2_v1.2,2013-03-07 22:52:00,
2013-03-07 17:57:00,33.5,30.6,30.07,SW,219,0.0,3.0,89,0.00,,,0.14,0,HR-IXP-WINDi_r2_v1.2,2013-03-07 22:57:00,
2013-03-07 18:02:00,33.4,30.5,30.07,SSE,167,0.0,3.0,89,0.00,,,0.14,0,HR-IXP-WINDi_r2_v1.2,2013-03-07 23:02:00,
2013-03-07 18:08:00,33.4,30.5,30.07,SW,228,0.0,1.0,89,0.00,,,0.14,0,HR-IXP-WINDi_r2_v1.2,2013-03-07 23:08:00,
2013-03-07 18:13:00,33.4,30.5,30.07,SE,142,0.0,1.0,89,0.00,,,0.14,0,HR-IXP-WINDi_r2_v1.2,2013-03-07 23:13:00,
2013-03-07 18:18:00,33.3,30.4,30.07,SSW,192,0.0,2.0,89,0.00,,,0.14,0,HR-IXP-WINDi_r2_v1.2,2013-03-07 23:18:00,
2013-03-07 18:23:00,33.3,30.4,30.07,SSW,194,0.0,2.0,89,0.00,,,0.14,0,HR-IXP-WINDi_r2_v1.2,2013-03-07 23:23:00,
2013-03-07 18:28:00,33.2,30.3,30.07,SW,221,1.0,2.0,89,0.00,,,0.14,0,HR-IXP-WINDi_r2_v1.2,2013-03-07 23:28:00,
2013-03-07 18:33:00,33.2,30.3,30.07,SSW,201,0.0,2.0,89,0.00,,,0.14,0,HR-IXP-WINDi_r2_v1.2,2013-03-07 23:33:00,
2013-03-07 18:38:00,33.2,30.3,30.07,SW,222,0.0,3.0,89,0.00,,,0.14,0,HR-IXP-WINDi_r2_v1.2,2013-03-07 23:38:00,
2013-03-07 18:43:00,33.1,30.2,30.07,SW,227,0.0,3.0,89,0.00,,,0.14,0,HR-IXP-WINDi_r2_v1.2,2013-03-07 23:43:00,
2013-03-07 18:48:00,33.1,30.2,30.06,SSW,209,0.0,1.0,89,0.00,,,0.14,0,HR-IXP-WINDi_r2_v1.2,2013-03-07 23:48:00,
2013-03-07 18:54:00,33.1,30.2,30.06,ESE,118,0.0,2.0,89,0.00,,,0.14,0,HR-IXP-WINDi_r2_v1.2,2013-03-07 23:54:00,
2013-03-07 18:59:00,33.1,30.2,30.06,South,178,0.0,2.0,89,0.00,,,0.14,0,HR-IXP-WINDi_r2_v1.2,2013-03-07 23:59:00,
2013-03-07 19:04:00,33.0,30.1,30.06,SE,130,0.0,2.0,89,0.00,,,0.14,0,HR-IXP-WINDi_r2_v1.2,2013-03-08 00:04:00,
2013-03-07 19:09:00,33.0,30.1,30.07,SE,130,0.0,1.0,89,0.00,,,0.14,0,HR-IXP-WINDi_r2_v1.2,2013-03-08 00:09:00,
2013-03-07 19:14:00,33.0,30.1,30.06,SSE,165,0.0,2.0,89,0.00,,,0.14,0,HR-IXP-WINDi_r2_v1.2,2013-03-08 00:14:00,
2013-03-07 19:20:00,33.0,30.1,30.07,SSE,165,0.0,2.0,89,0.00,,,0.14,0,HR-IXP-WINDi_r2_v1.2,2013-03-08 00:20:00,
2013-03-07 19:25:00,33.0,30.1,30.06,WSW,240,0.0,3.0,89,0.00,,,0.14,0,HR-IXP-WINDi_r2_v1.2,2013-03-08 00:25:00,
2013-03-07 19:30:00,33.0,30.1,30.06,SE,146,0.0,3.0,89,0.00,,,0.14,0,HR-IXP-WINDi_r2_v1.2,2013-03-08 00:30:00,
2013-03-07 19:35:00,33.0,30.1,30.06,SE,146,0.0,1.0,89,0.00,,,0.14,0,HR-IXP-WINDi_r2_v1.2,2013-03-08 00:35:00,
2013-03-07 19:40:00,33.0,30.1,30.06,SE,146,0.0,1.0,89,0.00,,,0.14,0,HR-IXP-WINDi_r2_v1.2,2013-03-08 00:40:00,
2013-03-07 19:46:00,33.0,30.1,30.06,WSW,244,0.0,1.0,89,0.00,,,0.14,0,HR-IXP-WINDi_r2_v1.2,2013-03-08 00:46:00,
2013-03-07 19:51:00,33.0,30.1,30.06,SW,217,0.0,2.0,89,0.00,,,0.15,0,HR-IXP-WINDi_r2_v1.2,2013-03-08 00:51:00,
2013-03-07 19:56:00,33.0,30.1,30.06,SW,219,0.0,2.0,89,0.00,,,0.15,0,HR-IXP-WINDi_r2_v1.2,2013-03-08 00:56:00,
2013-03-07 20:01:00,33.0,30.1,30.06,SW,225,0.0,1.0,89,0.00,,,0.15,0,HR-IXP-WINDi_r2_v1.2,2013-03-08 01:01:00,
2013-03-07 20:07:00,33.0,30.1,30.06,WSW,248,0.0,1.0,89,0.00,,,0.15,0,HR-IXP-WINDi_r2_v1.2,2013-03-08 01:07:00,
2013-03-07 20:12:00,33.0,30.1,30.05,SW,231,0.0,1.0,89,0.00,,,0.15,0,HR-IXP-WINDi_r2_v1.2,2013-03-08 01:12:00,
2013-03-07 20:17:00,33.0,30.1,30.05,SW,223,0.0,1.0,89,0.00,,,0.15,0,HR-IXP-WINDi_r2_v1.2,2013-03-08 01:17:00,
2013-03-07 20:23:00,33.0,30.1,30.05,SW,223,0.0,1.0,89,0.00,,,0.15,0,HR-IXP-WINDi_r2_v1.2,2013-03-08 01:23:00,
2013-03-07 20:28:00,33.0,30.1,30.05,SW,215,0.0,2.0,89,0.00,,,0.15,0,HR-IXP-WINDi_r2_v1.2,2013-03-08 01:28:00,
2013-03-07 20:33:00,33.0,30.1,30.05,SW,215,0.0,2.0,89,0.00,,,0.15,0,HR-IXP-WINDi_r2_v1.2,2013-03-08 01:33:00,
2013-03-07 20:38:00,32.9,30.0,30.05,South,191,0.0,2.0,89,0.00,,,0.15,0,HR-IXP-WINDi_r2_v1.2,2013-03-08 01:38:00,
2013-03-07 20:44:00,32.9,30.0,30.05,South,191,0.0,1.0,89,0.00,,,0.15,0,HR-IXP-WINDi_r2_v1.2,2013-03-08 01:44:00,
2013-03-07 20:49:00,32.9,30.0,30.05,SSW,192,0.0,1.0,89,0.00,,,0.15,0,HR-IXP-WINDi_r2_v1.2,2013-03-08 01:49:00,
2013-03-07 20:54:00,32.9,30.0,30.05,SSW,192,1.0,1.0,89,0.00,,,0.15,0,HR-IXP-WINDi_r2_v1.2,2013-03-08 01:54:00,
2013-03-07 21:00:00,32.9,30.0,30.05,SSW,192,0.0,1.0,89,0.00,,,0.15,0,HR-IXP-WINDi_r2_v1.2,2013-03-08 02:00:00,
2013-03-07 21:06:00,32.9,30.0,30.04,SSW,192,0.0,1.0,89,0.00,,,0.15,0,HR-IXP-WINDi_r2_v1.2,2013-03-08 02:06:00,
2013-03-07 21:11:00,32.9,30.0,30.04,SSW,192,0.0,1.0,89,0.00,,,0.15,0,HR-IXP-WINDi_r2_v1.2,2013-03-08 02:11:00,
2013-03-07 21:16:00,32.9,30.0,30.04,SSW,192,0.0,1.0,89,0.00,,,0.15,0,HR-IXP-WINDi_r2_v1.2,2013-03-08 02:16:00,
2013-03-07 21:21:00,32.9,30.0,30.04,SSW,192,0.0,1.0,89,0.00,,,0.15,0,HR-IXP-WINDi_r2_v1.2,2013-03-08 02:21:00,
2013-03-07 21:27:00,32.9,30.0,30.04,SSW,192,0.0,1.0,89,0.00,,,0.15,0,HR-IXP-WINDi_r2_v1.2,2013-03-08 02:27:00,
2013-03-07 21:32:00,32.9,30.0,30.04,SSW,192,0.0,1.0,89,0.00,,,0.15,0,HR-IXP-WINDi_r2_v1.2,2013-03-08 02:32:00,
2013-03-07 21:37:00,32.8,29.9,30.04,SSW,210,0.0,2.0,89,0.00,,,0.15,0,HR-IXP-WINDi_r2_v1.2,2013-03-08 02:37:00,
2013-03-07 21:43:00,32.8,29.9,30.04,SSW,210,0.0,2.0,89,0.00,,,0.15,0,HR-IXP-WINDi_r2_v1.2,2013-03-08 02:43:00,
2013-03-07 21:49:00,32.8,29.9,30.04,SW,229,0.0,1.0,89,0.00,,,0.15,0,HR-IXP-WINDi_r2_v1.2,2013-03-08 02:49:00,
2013-03-07 21:54:00,32.8,29.9,30.04,SW,230,0.0,1.0,89,0.00,,,0.15,0,HR-IXP-WINDi_r2_v1.2,2013-03-08 02:54:00,
2013-03-07 21:59:00,32.8,29.9,30.03,SW,225,0.0,1.0,89,0.00,,,0.15,0,HR-IXP-WINDi_r2_v1.2,2013-03-08 02:59:00,
2013-03-07 22:04:00,32.8,29.9,30.03,SW,225,0.0,1.0,89,0.00,,,0.15,0,HR-IXP-WINDi_r2_v1.2,2013-03-08 03:04:00,
2013-03-07 22:09:00,32.8,29.9,30.03,SSW,211,0.0,2.0,89,0.00,,,0.15,0,HR-IXP-WINDi_r2_v1.2,2013-03-08 03:09:00,
2013-03-07 22:14:00,32.8,29.9,30.03,SSW,211,0.0,2.0,89,0.00,,,0.15,0,HR-IXP-WINDi_r2_v1.2,2013-03-08 03:14:00,
2013-03-07 22:20:00,32.8,29.9,30.03,SSW,211,0.0,1.0,89,0.00,,,0.15,0,HR-IXP-WINDi_r2_v1.2,2013-03-08 03:20:00,
2013-03-07 22:25:00,32.8,30.2,30.03,South,173,0.0,2.0,90,0.00,,,0.15,0,HR-IXP-WINDi_r2_v1.2,2013-03-08 03:25:00,
2013-03-07 22:30:00,32.8,30.2,30.03,South,182,0.0,2.0,90,0.00,,,0.15,0,HR-IXP-WINDi_r2_v1.2,2013-03-08 03:30:00,
2013-03-07 22:35:00,32.8,30.2,30.03,South,182,0.0,1.0,90,0.00,,,0.15,0,HR-IXP-WINDi_r2_v1.2,2013-03-08 03:35:00,
2013-03-07 22:40:00,32.7,30.1,30.03,South,182,0.0,0.0,90,0.00,,,0.15,0,HR-IXP-WINDi_r2_v1.2,2013-03-08 03:40:00,
2013-03-07 22:45:00,32.7,30.1,30.03,ESE,109,0.0,1.0,90,0.00,,,0.15,0,HR-IXP-WINDi_r2_v1.2,2013-03-08 03:45:00,
2013-03-07 22:51:00,32.7,30.1,30.03,SSW,207,0.0,1.0,90,0.00,,,0.15,0,HR-IXP-WINDi_r2_v1.2,2013-03-08 03:51:00,
2013-03-07 22:56:00,32.7,30.1,30.02,SW,217,0.0,1.0,90,0.00,,,0.15,0,HR-IXP-WINDi_r2_v1.2,2013-03-08 03:56:00,
2013-03-07 23:01:00,32.7,30.1,30.02,South,174,0.0,2.0,90,0.00,,,0.15,0,HR-IXP-WINDi_r2_v1.2,2013-03-08 04:01:00,
2013-03-07 23:06:00,32.7,30.1,30.02,South,174,0.0,2.0,90,0.00,,,0.15,0,HR-IXP-WINDi_r2_v1.2,2013-03-08 04:06:00,
2013-03-07 23:12:00,32.7,30.1,30.02,SW,233,0.0,2.0,90,0.00,,,0.15,0,HR-IXP-WINDi_r2_v1.2,2013-03-08 04:12:00,
2013-03-07 23:17:00,32.7,30.1,30.02,SW,233,0.0,2.0,90,0.00,,,0.15,0,HR-IXP-WINDi_r2_v1.2,2013-03-08 04:17:00,
2013-03-07 23:22:00,32.7,30.1,30.02,SW,221,0.0,1.0,90,0.00,,,0.15,0,HR-IXP-WINDi_r2_v1.2,2013-03-08 04:22:00,
2013-03-07 23:27:00,32.7,30.1,30.02,South,189,0.0,1.0,90,0.00,,,0.15,0,HR-IXP-WINDi_r2_v1.2,2013-03-08 04:27:00,
2013-03-07 23:32:00,32.7,30.1,30.02,SW,218,0.0,1.0,90,0.00,,,0.15,0,HR-IXP-WINDi_r2_v1.2,2013-03-08 04:32:00,
2013-03-07 23:37:00,32.7,30.1,30.02,SSW,204,0.0,1.0,90,0.00,,,0.15,0,HR-IXP-WINDi_r2_v1.2,2013-03-08 04:37:00,
2013-03-07 23:43:00,32.6,30.0,30.02,SSW,209,0.0,2.0,90,0.00,,,0.15,0,HR-IXP-WINDi_r2_v1.2,2013-03-08 04:43:00,
2013-03-07 23:48:00,32.6,30.0,30.02,SSW,209,0.0,2.0,90,0.00,,,0.15,0,HR-IXP-WINDi_r2_v1.2,2013-03-08 04:48:00,
2013-03-07 23:53:00,32.6,30.0,30.01,SW,236,0.0,2.0,90,0.00,,,0.15,0,HR-IXP-WINDi_r2_v1.2,2013-03-08 04:53:00,
2013-03-07 23:58:00,32.6,30.0,30.01,SW,215,0.0,2.0,90,0.00,,,0.15,0,HR-IXP-WINDi_r2_v1.2,2013-03-08 04:58:00,